[[{"header":{"parameterUnit":"m.s-1","parameterCategory":1,"la1":30.2991,"la2":30.254,"lo1":-89.0895,"lo2":-89.0444,"dy":0.0017,"dx":0.0017,"nx":28,"ny":28,"refTime":"2025-07-09T03:00:00:Z","depth":0,"parameterNumber":2,"parameterNumberName":"U-component_of_WINDS"},"data":[0,0,0,0,0,0,0,0,0,0,0,0,0,0,0,0,0,0,0,0,0,0,0,0,0,0,0,0,0,0,0,0,0,0,0,0,0,0,0,0,0,0,0,0,0,0,0,0,0,0,0,0,0,0,0,0,0,0,2.2574,2.2574,0,2.2622,2.2623,2.2623,2.2628,2.2628,2.2627,2.2627,2.2678,2.2679,2.2681,0,0,0,0,0,0,0,0,0,0,0,0,0,2.2487,2.2489,2.2574,2.2574,2.2575,2.2622,2.2623,2.2624,2.2628,2.2628,2.2627,2.2626,2.2677,2.2679,2.2681,0,0,0,0,0,0,0,0,0,0,0,0,0,2.2529,2.2489,2.2574,2.2583,2.2584,2.2622,2.2623,2.2624,2.2628,2.2628,2.2627,2.2626,2.2676,2.2679,2.2682,2.2714,0,0,2.269,2.2691,0,0,0,0,0,0,0,0,2.2527,2.2532,2.2581,2.2582,2.2584,2.2618,2.2611,2.2654,2.2629,2.2612,2.2627,2.2626,2.2659,2.2663,2.2674,2.2716,2.2719,2.269,2.2692,2.2693,2.2694,0,0,0,0,0,0,0,2.2524,2.253,2.2593,2.2582,2.2583,2.2585,2.2591,2.2619,2.2639,2.2613,2.2614,2.2619,2.2659,2.2671,2.2675,2.2719,2.269,2.2693,2.2694,2.2695,2.2793,2.2794,0,0,0,0,0,0,2.2519,2.2528,2.2591,2.2594,2.2553,2.2588,2.2593,2.2608,2.2639,2.2642,2.262,2.2619,2.2667,2.2672,2.2677,2.2718,2.2693,2.2696,2.2697,2.2792,2.2793,2.2794,0,0,0,0,0,0,2.2517,2.2525,2.2589,2.2561,2.257,2.259,2.2606,2.2609,2.2621,2.2644,2.2647,2.2628,2.2666,2.2673,2.2705,2.272,2.2697,2.2699,2.2791,2.2792,2.2794,2.2799,0,0,0,0,0,0,2.2515,2.2524,2.2536,2.2562,2.2571,2.2616,2.2607,2.2611,2.2626,2.2625,2.2652,2.2656,2.2666,2.2701,2.2708,2.2723,2.2702,2.279,2.2792,2.2793,2.2798,2.2801,2.2803,0,0,0,0,0,2.2511,2.2535,2.2536,2.2544,2.2586,2.2617,2.2623,2.2633,2.2627,2.2639,2.2654,2.2655,2.2717,2.2704,2.2712,2.2728,2.2789,2.2791,2.2793,2.2797,2.28,2.2803,0,0,0,0,0,0,2.251,2.2538,2.254,2.2573,2.2592,2.2618,2.2634,2.2636,2.2659,2.2658,2.2671,2.2677,2.2709,2.2722,2.2707,2.2762,2.2752,2.2756,2.2752,2.2756,2.2758,2.2755,2.2704,0,0,0,0,0,2.2514,2.2536,2.256,2.2586,2.2596,2.2613,2.2627,2.2634,2.2655,2.2663,2.268,2.2701,2.2726,2.2741,2.2765,2.28,2.2807,2.2815,2.2817,2.282,2.2823,2.2844,2.2848,2.2801,2.2801,2.2801,0,0,2.2521,2.2539,2.2552,2.2586,2.2602,2.2626,2.262,2.2645,2.2663,2.2667,2.2699,2.2712,2.2737,2.2771,2.2787,2.2783,2.2837,2.2822,2.2824,2.2826,2.2847,2.2851,2.2855,2.2803,2.2802,2.2802,0,0,2.2547,2.2562,2.2587,2.2603,2.2628,2.264,2.2646,2.2671,2.268,2.2712,2.2717,2.2739,2.278,2.2797,2.2812,2.2846,2.2849,2.2854,2.2867,2.2888,2.2891,2.2895,2.2908,2.2913,2.2857,2.2857,2.2857,0,2.2553,2.2588,2.2599,2.2624,2.264,2.2645,2.2671,2.2686,2.2718,2.2729,2.2723,2.2776,2.2793,2.2832,2.2841,2.2852,2.286,2.2851,2.289,2.2893,2.2897,2.291,2.2915,2.2857,2.2857,2.2857,2.2857,0,2.2595,2.262,2.2637,2.2667,2.2684,2.2709,2.2725,2.2742,2.2747,2.276,2.2794,2.2814,2.2843,2.2852,2.2858,2.2893,2.289,2.2887,2.2878,2.2902,2.2914,2.2919,2.2858,2.2858,2.2858,2.2857,0,0,2.2621,2.2658,2.2664,2.2679,2.2707,2.2726,2.2753,2.278,2.2795,2.2817,2.284,2.2875,2.2874,2.289,2.2898,2.2916,2.2944,2.2911,2.2912,2.2917,2.2985,2.2987,2.2993,2.2945,2.2946,2.2947,2.2983,0,2.265,2.2697,2.2708,2.2748,2.2772,2.2778,2.2801,2.2822,2.2835,2.2857,2.2872,2.2897,2.2892,2.2902,2.292,2.2936,2.2958,2.2934,2.2968,2.2969,2.2962,2.2999,2.3001,2.3035,2.2988,2.2989,2.299,0,2.2691,2.2714,2.2756,2.2783,2.2794,2.2814,2.2842,2.2863,2.2887,2.2895,2.2914,2.2921,2.295,2.2939,2.2979,2.2963,2.2978,2.2988,2.299,2.2994,2.2981,2.3005,2.3045,2.3051,2.2997,2.2997,2.2996,0,2.2707,2.2748,2.278,2.2792,2.2824,2.2838,2.2852,2.2875,2.2892,2.2916,2.2927,2.2955,2.297,2.2991,2.3005,2.2996,2.3046,2.3035,2.3054,2.3054,2.3064,2.3064,2.3109,2.3073,2.3073,2.3073,2.3073,0,2.2739,2.2765,2.2787,2.2807,2.2836,2.285,2.2879,2.2894,2.2915,2.2938,2.2945,2.2966,2.2984,2.3008,2.3019,2.3052,2.3059,2.3067,2.307,2.3067,2.3066,2.3077,2.3075,2.3074,2.3074,2.3073,2.3073,0,2.2762,2.2778,2.2812,2.284,2.2848,2.2869,2.2893,2.2912,2.2926,2.2955,2.2962,2.2984,2.3013,2.3029,2.3066,2.3074,2.3111,2.3112,2.3102,2.3104,2.3122,2.312,2.3176,2.3184,2.3142,2.3143,2.3143,0,2.2782,2.2802,2.2832,2.2848,2.2863,2.2888,2.2905,2.292,2.2937,2.2967,2.2984,2.3013,2.3038,2.3084,2.3103,2.3132,2.3134,2.3152,2.3139,2.3135,2.3136,2.3135,2.3138,2.3154,2.3155,2.3155,2.3155,0,2.2816,2.2823,2.2847,2.2875,2.2896,2.2918,2.294,2.2953,2.2972,2.2991,2.3021,2.304,2.3078,2.3108,2.3138,2.3153,2.3158,2.3159,2.3165,2.3163,2.3157,2.3161,2.3109,2.3158,2.3158,2.3157,2.3157,2.3157,2.2839,2.2858,2.2882,2.291,2.2928,2.2949,2.2969,2.2986,2.3011,2.3042,2.305,2.3082,2.3107,2.3148,2.3164,2.319,2.3187,2.3195,2.3198,2.32,2.3201,2.3152,2.3196,2.3196,2.3196,2.3196,2.3195,0,2.2874,2.2891,2.2916,2.2947,2.2969,2.2971,2.2996,2.3015,2.3043,2.3066,2.309,2.3125,2.3154,2.3176,2.3206,2.3223,2.3226,2.323,2.323,2.3234,2.3202,2.3194,2.3228,2.3228,2.3228,2.3228,2.3228,2.3228,2.2896,2.2928,2.2939,2.2981,2.2997,2.3028,2.3043,2.3063,2.3081,2.312,2.3145,2.3159,2.3182,2.3214,2.3241,2.3247,2.3259,2.3263,2.3269,2.3239,2.3236,2.3232,2.3225,2.3265,2.3265,2.3299,2.33,2.33]},{"header":{"parameterUnit":"m.s-1","parameterCategory":1,"la1":30.2991,"la2":30.254,"lo1":-89.0895,"lo2":-89.0444,"dy":0.0017,"dx":0.0017,"nx":28,"ny":28,"refTime":"2025-07-09T03:00:00:Z","depth":0,"parameterNumber":3,"parameterNumberName":"V-component_of_WINDS"},"data":[0,0,0,0,0,0,0,0,0,0,0,0,0,0,0,0,0,0,0,0,0,0,0,0,0,0,0,0,0,0,0,0,0,0,0,0,0,0,0,0,0,0,0,0,0,0,0,0,0,0,0,0,0,0,0,0,0,0,-0.8753,-0.8753,0,-0.8704,-0.8703,-0.8703,-0.8664,-0.8664,-0.8664,-0.8663,-0.8611,-0.861,-0.8609,0,0,0,0,0,0,0,0,0,0,0,0,0,-0.8815,-0.8814,-0.8753,-0.8753,-0.8752,-0.8704,-0.8703,-0.8703,-0.8665,-0.8664,-0.8664,-0.8663,-0.8612,-0.861,-0.8609,0,0,0,0,0,0,0,0,0,0,0,0,0,-0.8779,-0.8814,-0.8754,-0.8727,-0.8725,-0.8704,-0.8703,-0.8703,-0.8665,-0.8664,-0.8664,-0.8663,-0.8612,-0.8611,-0.8609,-0.861,0,0,-0.8604,-0.8604,0,0,0,0,0,0,0,0,-0.8781,-0.8777,-0.8732,-0.8729,-0.8726,-0.869,-0.8706,-0.8672,-0.8665,-0.8687,-0.8663,-0.8663,-0.8638,-0.8634,-0.8626,-0.8608,-0.8606,-0.8604,-0.8603,-0.8602,-0.8602,0,0,0,0,0,0,0,-0.8784,-0.8779,-0.8734,-0.8731,-0.8728,-0.8718,-0.8712,-0.8699,-0.8666,-0.8685,-0.8682,-0.8677,-0.8636,-0.8628,-0.8624,-0.8605,-0.8604,-0.8603,-0.8602,-0.8601,-0.8587,-0.8588,0,0,0,0,0,0,-0.879,-0.8781,-0.8735,-0.8732,-0.8753,-0.8718,-0.8711,-0.8702,-0.8666,-0.866,-0.8678,-0.8676,-0.8631,-0.8626,-0.8623,-0.8623,-0.8602,-0.8601,-0.86,-0.8587,-0.8587,-0.8588,0,0,0,0,0,0,-0.8792,-0.8787,-0.8737,-0.8756,-0.8749,-0.8717,-0.8707,-0.8701,-0.8693,-0.8661,-0.8654,-0.8675,-0.863,-0.8625,-0.8614,-0.862,-0.86,-0.8599,-0.8586,-0.8587,-0.8588,-0.8623,0,0,0,0,0,0,-0.8794,-0.8787,-0.8787,-0.8756,-0.8748,-0.873,-0.8707,-0.8701,-0.869,-0.8687,-0.8656,-0.8651,-0.8629,-0.8617,-0.8613,-0.8618,-0.8598,-0.8585,-0.8587,-0.8588,-0.8621,-0.8625,-0.8628,0,0,0,0,0,-0.8796,-0.8798,-0.8787,-0.8782,-0.8747,-0.873,-0.8726,-0.8701,-0.8691,-0.8691,-0.8671,-0.8652,-0.8621,-0.8616,-0.8611,-0.8616,-0.8585,-0.8586,-0.8587,-0.8619,-0.8624,-0.8628,0,0,0,0,0,0,-0.883,-0.8794,-0.8781,-0.8774,-0.8756,-0.8724,-0.8723,-0.8706,-0.869,-0.8688,-0.8658,-0.8651,-0.8644,-0.8629,-0.8624,-0.8616,-0.86,-0.8601,-0.8626,-0.8631,-0.8634,-0.8638,-0.8596,0,0,0,0,0,-0.8837,-0.8826,-0.8795,-0.8791,-0.8783,-0.8755,-0.8746,-0.8729,-0.8709,-0.8701,-0.8679,-0.866,-0.8646,-0.8638,-0.8623,-0.8619,-0.8612,-0.862,-0.8624,-0.8627,-0.8627,-0.8626,-0.8629,-0.8592,-0.8592,-0.8592,0,0,-0.885,-0.8829,-0.8824,-0.8798,-0.8781,-0.8771,-0.8748,-0.8738,-0.873,-0.8699,-0.8688,-0.8672,-0.8649,-0.8642,-0.8638,-0.8629,-0.8636,-0.8628,-0.8631,-0.863,-0.8627,-0.8631,-0.8634,-0.8593,-0.8593,-0.8593,0,0,-0.887,-0.8852,-0.8848,-0.8833,-0.881,-0.8791,-0.879,-0.8762,-0.875,-0.8739,-0.8716,-0.8706,-0.8683,-0.8667,-0.8657,-0.8673,-0.8656,-0.8669,-0.8688,-0.8686,-0.8689,-0.8692,-0.8699,-0.8701,-0.867,-0.867,-0.867,0,-0.8889,-0.8873,-0.8848,-0.884,-0.8829,-0.8802,-0.8798,-0.8784,-0.8757,-0.8751,-0.8741,-0.8712,-0.8694,-0.8685,-0.8689,-0.8681,-0.8679,-0.8672,-0.8691,-0.8693,-0.8695,-0.8701,-0.8704,-0.8672,-0.8672,-0.8672,-0.8671,0,-0.8899,-0.8888,-0.8888,-0.8864,-0.8853,-0.8847,-0.8821,-0.8814,-0.8798,-0.8781,-0.8771,-0.8749,-0.873,-0.8727,-0.8711,-0.8715,-0.8711,-0.8697,-0.868,-0.8701,-0.8706,-0.8708,-0.8675,-0.8674,-0.8673,-0.8673,0,0,-0.8937,-0.89,-0.8901,-0.889,-0.8863,-0.8854,-0.8848,-0.883,-0.8825,-0.8808,-0.8802,-0.8783,-0.8771,-0.8759,-0.8741,-0.874,-0.8756,-0.8726,-0.8725,-0.8733,-0.8761,-0.8772,-0.8775,-0.8745,-0.8745,-0.8745,-0.8763,0,-0.8952,-0.8939,-0.8917,-0.8911,-0.8902,-0.8877,-0.8871,-0.8854,-0.8839,-0.8829,-0.8811,-0.8799,-0.8783,-0.8776,-0.8774,-0.8755,-0.8761,-0.8753,-0.8739,-0.8739,-0.8746,-0.8778,-0.8789,-0.8806,-0.8765,-0.8765,-0.8766,0,-0.8968,-0.8954,-0.8947,-0.8923,-0.8918,-0.8914,-0.8897,-0.8887,-0.8868,-0.8857,-0.8845,-0.8826,-0.8819,-0.8804,-0.8793,-0.8788,-0.8782,-0.8772,-0.8772,-0.8769,-0.8754,-0.8777,-0.8811,-0.8814,-0.8769,-0.8768,-0.8768,0,-0.8998,-0.8977,-0.897,-0.8962,-0.8933,-0.8931,-0.8919,-0.8899,-0.8891,-0.8876,-0.887,-0.8855,-0.8846,-0.8835,-0.8813,-0.8804,-0.8805,-0.8788,-0.8796,-0.8797,-0.8797,-0.8797,-0.8832,-0.8792,-0.8792,-0.8792,-0.8792,0,-0.9018,-0.9015,-0.8983,-0.898,-0.8976,-0.8952,-0.8949,-0.8934,-0.8918,-0.8911,-0.8888,-0.8882,-0.8854,-0.8845,-0.8827,-0.8822,-0.8818,-0.8809,-0.8804,-0.8811,-0.8812,-0.8806,-0.8804,-0.8793,-0.8793,-0.8793,-0.8793,0,-0.9049,-0.9028,-0.902,-0.8994,-0.8988,-0.8987,-0.8964,-0.896,-0.8944,-0.8936,-0.8933,-0.8907,-0.8895,-0.8873,-0.8854,-0.8843,-0.8842,-0.8833,-0.8848,-0.8845,-0.8855,-0.8854,-0.8886,-0.889,-0.8848,-0.8849,-0.8849,0,-0.9063,-0.9061,-0.9036,-0.903,-0.9019,-0.901,-0.9002,-0.8978,-0.897,-0.895,-0.8948,-0.8935,-0.8923,-0.8906,-0.8886,-0.8872,-0.8864,-0.8876,-0.8862,-0.8869,-0.8865,-0.8866,-0.8866,-0.8879,-0.888,-0.888,-0.8881,0,-0.9091,-0.9081,-0.907,-0.9057,-0.9048,-0.9036,-0.9022,-0.9019,-0.8992,-0.8985,-0.8974,-0.8965,-0.8947,-0.8935,-0.8919,-0.8906,-0.8889,-0.8886,-0.8887,-0.8894,-0.8903,-0.8899,-0.8858,-0.8885,-0.8884,-0.8884,-0.8884,-0.8884,-0.9115,-0.9112,-0.9094,-0.9084,-0.9071,-0.906,-0.9055,-0.9039,-0.9029,-0.9014,-0.9001,-0.8991,-0.8973,-0.895,-0.8939,-0.8931,-0.8923,-0.8924,-0.8924,-0.8925,-0.8929,-0.8904,-0.8928,-0.8928,-0.8928,-0.8927,-0.8927,0,-0.9142,-0.913,-0.912,-0.9103,-0.9095,-0.9081,-0.9066,-0.906,-0.9052,-0.9037,-0.9027,-0.9015,-0.9003,-0.8983,-0.897,-0.8967,-0.896,-0.8965,-0.8965,-0.8962,-0.8936,-0.8937,-0.8972,-0.8972,-0.8972,-0.8972,-0.8972,-0.8972,-0.9155,-0.915,-0.9138,-0.9128,-0.9116,-0.9106,-0.9099,-0.9089,-0.9077,-0.9065,-0.9056,-0.9043,-0.9027,-0.9012,-0.9002,-0.8996,-0.8992,-0.9,-0.8992,-0.8968,-0.8964,-0.896,-0.8961,-0.9,-0.9,-0.9019,-0.9019,-0.9019]}]]